EW4538 Weather Reports


time (UTC)temp
C
wind
direction
speed
KPH
gust
KPH
rain 1hr
cm
rain 24hr
cm
rain mn
cm
humidity
%
barometer
mb
20260510021805 26 171 8.0 12.9 0.00 0.00 0.00 67 1009.0
20260510021304 26 155 8.0 12.9 0.00 0.00 0.00 66 1008.9
20260510020805 26 155 4.8 12.9 0.00 0.00 0.00 66 1008.9
20260510020305 26 155 8.0 16.1 0.00 0.00 0.00 66 1008.7
20260510014805 26 159 14.5 19.3 0.00 0.00 0.00 64 1008.5
20260510014305 26 155 14.5 20.9 0.00 0.00 0.00 63 1008.5
20260510013804 26 162 12.9 19.3 0.00 0.00 0.00 63 1008.5
20260510013305 27 156 14.5 22.5 0.00 0.00 0.00 62 1008.5
20260510011805 27 149 16.1 24.1 0.00 0.00 0.00 59 1008.4
20260510011305 27 154 12.9 20.9 0.00 0.00 0.00 59 1008.3
20260510010804 27 144 16.1 20.9 0.00 0.00 0.00 58 1008.3
20260510010305 27 153 12.9 25.7 0.00 0.00 0.00 57 1008.2
20260510004805 28 158 14.5 22.5 0.00 0.00 0.00 55 1008.2
20260510004304 28 163 14.5 22.5 0.00 0.00 0.00 54 1008.1
20260510003805 28 151 14.5 24.1 0.00 0.00 0.00 53 1008.0
20260510003305 28 149 19.3 32.2 0.00 0.00 0.00 52 1008.0
20260510001805 29 146 20.9 25.7 0.00 0.00 0.00 48 1007.8
20260510001304 29 157 16.1 27.4 0.00 0.00 0.00 47 1007.8
20260510000805 29 164 17.7 24.1 0.00 0.00 0.00 47 1007.7
20260510000305 30 150 14.5 22.5 0.00 0.00 0.00 47 1007.6
20260509234805 30 148 14.5 22.5 0.00 0.00 0.00 44 1007.6
20260509234305 30 154 14.5 24.1 0.00 0.00 0.00 44 1007.6
20260509233805 30 164 16.1 24.1 0.00 0.00 0.00 44 1007.6
20260509233304 30 146 16.1 24.1 0.00 0.00 0.00 44 1007.5
20260509231804 30 150 19.3 29.0 0.00 0.00 0.00 44 1007.5
20260509231304 30 155 11.3 24.1 0.00 0.00 0.00 44 1007.5
20260509230805 30 143 9.7 24.1 0.00 0.00 0.00 43 1007.5
20260509230304 30 154 14.5 24.1 0.00 0.00 0.00 43 1007.4
20260509224304 31 164 12.9 22.5 0.00 0.00 0.00 44 1007.5
20260509223304 30 148 16.1 29.0 0.00 0.00 0.00 44 1007.5
20260509221805 32 155 11.3 20.9 0.00 0.00 0.00 41 1007.4
20260509221305 32 130 6.4 14.5 0.00 0.00 0.00 42 1007.4
20260509220804 32 209 1.6 4.8 0.00 0.00 0.00 42 1007.4
20260509220304 31 209 8.0 16.1 0.00 0.00 0.00 41 1007.4
20260509214805 32 23 4.8 14.5 0.00 0.00 0.00 42 1007.6
20260509214305 31 54 1.6 14.5 0.00 0.00 0.00 44 1007.7
20260509213305 32 140 4.8 19.3 0.00 0.00 0.00 42 1007.8
20260509210805 32 111 8.0 12.9 0.00 0.00 0.00 42 1008.0
20260509210305 32 140 6.4 19.3 0.00 0.00 0.00 41 1008.1
20260509204804 34 309 3.2 9.7 0.00 0.00 0.00 39 1008.3
20260509204304 34 289 6.4 9.7 0.00 0.00 0.00 39 1008.4
20260509203805 33 330 4.8 12.9 0.00 0.00 0.00 41 1008.4
20260509203305 33 205 3.2 12.9 0.00 0.00 0.00 41 1008.6
20260509200805 33 326 4.8 12.9 0.00 0.00 0.00 42 1009.1
20260509194805 33 236 4.8 9.7 0.00 0.00 0.00 43 1009.1
20260509194305 33 197 3.2 9.7 0.00 0.00 0.00 43 1009.0
20260509193805 33 234 4.8 22.5 0.00 0.00 0.00 44 1009.1
20260509193305 33 204 3.2 16.1 0.00 0.00 0.00 42 1009.1
20260509191805 33 198 4.8 9.7 0.00 0.00 0.00 46 1009.3
20260509191305 32 306 3.2 12.9 0.00 0.00 0.00 46 1009.3
20260509184805 32 198 3.2 9.7 0.00 0.00 0.00 49 1009.9
20260509184304 32 321 4.8 9.7 0.00 0.00 0.00 48 1009.9
20260509183805 32 279 4.8 12.9 0.00 0.00 0.00 50 1009.9
20260509183304 32 198 6.4 16.1 0.00 0.00 0.00 49 1010.1
20260509181805 31 297 3.2 9.7 0.00 0.00 0.00 50 1010.2
20260509180805 31 289 6.4 19.3 0.00 0.00 0.00 51 1010.5
20260509180304 31 296 9.7 19.3 0.00 0.00 0.00 50 1010.6
20260509174305 30 225 3.2 8.0 0.00 0.00 0.00 55 1010.8
20260509173805 30 244 3.2 9.7 0.00 0.00 0.00 58 1010.9
20260509173305 30 223 1.6 16.1 0.00 0.00 0.00 59 1011.0
20260509170305 28 172 4.8 19.3 0.00 0.00 0.00 63 1011.1
20260509164805 27 161 4.8 12.9 0.00 0.00 0.00 66 1011.2
20260509164305 27 209 3.2 12.9 0.00 0.00 0.00 69 1011.3
20260509163804 26 140 4.8 16.1 0.00 0.00 0.00 69 1011.3
20260509163305 26 152 11.3 25.7 0.00 0.00 0.00 70 1011.4
20260509161304 24 164 8.0 20.9 0.00 0.00 0.00 78 1011.5
20260509160305 24 160 11.3 27.4 0.00 0.00 0.00 79 1011.5
20260509154804 24 181 14.5 20.9 0.00 0.00 0.00 79 1011.6
20260509154305 24 170 9.7 25.7 0.00 0.00 0.00 79 1011.4
20260509153804 24 169 14.5 24.1 0.00 0.00 0.00 79 1011.3
20260509153304 23 170 16.1 29.0 0.00 0.00 0.00 79 1011.3
20260509151304 25 174 12.9 22.5 0.00 0.00 0.00 77 1010.9
20260509150805 25 180 12.9 22.5 0.00 0.00 0.00 77 1010.9
20260509150305 25 169 9.7 29.0 0.00 0.00 0.00 78 1010.8
20260509143805 25 174 9.7 19.3 0.00 0.00 0.00 79 1010.7
20260509143305 25 203 4.8 12.9 0.00 0.00 0.00 80 1010.7
20260509141804 23 184 4.8 9.7 0.00 0.00 0.00 82 1010.4
20260509134804 22 172 6.4 19.3 0.00 0.00 0.00 85 1010.0
20260509134305 22 158 11.3 19.3 0.00 0.00 0.00 85 1010.1
20260509133804 22 172 6.4 16.1 0.00 0.00 0.00 86 1010.2
20260509133305 22 162 11.3 20.9 0.00 0.00 0.00 86 1010.3
20260509131305 21 176 9.7 16.1 0.00 0.00 0.00 87 1010.4
20260509130305 21 186 4.8 9.7 0.00 0.00 0.00 87 1010.8
20260509124805 21 323 0.0 1.6 0.00 0.00 0.00 87 1010.9
20260509124304 21 323 0.0 1.6 0.00 0.00 0.00 87 1010.9
20260509123804 21 323 0.0 0.0 0.00 0.00 0.00 87 1010.8
20260509123305 21 323 1.6 4.8 0.00 0.00 0.00 87 1010.8
20260509121804 21 323 1.6 4.8 0.00 0.00 0.00 87 1010.7
20260509121305 21 323 1.6 3.2 0.00 0.00 0.00 87 1010.7
20260509120805 21 323 3.2 4.8 0.00 0.00 0.00 87 1010.8
20260509120304 21 323 0.0 4.8 0.00 0.00 0.00 87 1010.9
20260509114805 21 324 4.8 8.0 0.00 0.00 0.00 86 1011.1
20260509114304 21 27 1.6 3.2 0.00 0.00 0.00 86 1011.0
20260509113804 21 27 3.2 8.0 0.00 0.00 0.00 86 1011.0
20260509113305 21 355 1.6 3.2 0.00 0.00 0.00 86 1011.1
20260509111804 21 355 0.0 1.6 0.00 0.00 0.00 86 1011.6
20260509111305 21 355 3.2 4.8 0.00 0.00 0.00 86 1011.8
20260509110805 21 355 3.2 8.0 0.00 0.00 0.00 86 1011.9
20260509110305 21 13 3.2 8.0 0.00 0.00 0.00 86 1011.9
20260509104305 21 19 0.0 8.0 0.00 0.00 0.00 86 1011.9
20260509103805 21 355 4.8 8.0 0.00 0.00 0.00 86 1012.0
20260509103304 21 5 3.2 9.7 0.00 0.00 0.00 86 1011.9
20260509101804 21 359 3.2 8.0 0.00 0.00 0.00 86 1011.8
20260509101305 21 5 1.6 8.0 0.00 0.00 0.00 86 1011.6
20260509100805 21 343 4.8 8.0 0.00 0.00 0.00 86 1011.6
20260509100305 21 0 3.2 8.0 0.00 0.00 0.00 86 1011.4
20260509094804 21 169 0.0 0.0 0.00 0.00 0.00 86 1010.8
20260509094304 21 169 0.0 0.0 0.00 0.00 0.00 86 1010.6
20260509093305 21 169 0.0 1.6 0.00 0.00 0.00 86 1010.4
20260509091804 21 169 0.0 0.0 0.00 0.00 0.00 86 1010.4
20260509091305 21 169 0.0 1.6 0.00 0.00 0.00 86 1010.3
20260509090804 21 169 0.0 1.6 0.00 0.00 0.00 86 1010.4
20260509084805 21 169 0.0 0.0 0.00 0.00 0.00 85 1010.4
20260509084304 21 169 0.0 3.2 0.00 0.00 0.00 85 1010.5
20260509083805 21 169 1.6 3.2 0.00 0.00 0.00 85 1010.5
20260509083305 21 169 3.2 3.2 0.00 0.00 0.00 85 1010.6
20260509081804 21 169 1.6 3.2 0.00 0.00 0.00 85 1010.8
20260509081305 21 169 3.2 8.0 0.00 0.00 0.00 85 1010.9
20260509080804 21 169 0.0 1.6 0.00 0.00 0.00 85 1010.9
20260509074804 22 169 0.0 1.6 0.00 0.00 0.00 85 1011.0
20260509074304 22 169 0.0 3.2 0.00 0.00 0.00 85 1010.9
20260509073805 22 169 0.0 3.2 0.00 0.00 0.00 85 1010.8
20260509073305 22 169 0.0 8.0 0.00 0.00 0.00 85 1010.6
20260509071805 21 169 1.6 1.6 0.00 0.00 0.00 84 1011.2
20260509071304 21 169 0.0 3.2 0.00 0.00 0.00 84 1011.1
20260509070805 21 169 1.6 3.2 0.00 0.00 0.00 84 1011.2
20260509070305 21 169 0.0 3.2 0.00 0.00 0.00 84 1011.3
20260509064805 21 169 0.0 0.0 0.00 0.00 0.00 84 1011.0
20260509064305 21 169 0.0 0.0 0.00 0.00 0.00 84 1010.9
20260509063304 21 169 0.0 1.6 0.00 0.00 0.00 84 1010.9
20260509061804 21 169 0.0 1.6 0.00 0.00 0.00 84 1011.1
20260509061305 21 169 0.0 3.2 0.00 0.00 0.00 84 1011.0
20260509060804 21 169 1.6 9.7 0.00 0.00 0.00 84 1010.9
20260509054304 21 170 8.0 16.1 0.00 0.00 0.00 84 1010.6
20260509053804 21 179 9.7 16.1 0.00 0.00 0.00 84 1010.6
20260509053304 21 169 14.5 25.7 0.00 0.00 0.00 84 1010.5
20260509051804 21 161 17.7 27.4 0.00 0.00 0.00 84 1009.7
20260509051304 21 162 12.9 24.1 0.00 0.00 0.00 84 1009.7
20260509050305 21 151 17.7 25.7 0.00 0.00 0.00 83 1009.6
20260509044804 21 148 4.8 14.5 0.00 0.00 0.00 83 1009.7
20260509044304 21 133 3.2 9.7 0.00 0.00 0.00 82 1009.8
20260509043804 21 98 1.6 4.8 0.00 0.00 0.00 82 1009.8
20260509043304 21 98 4.8 9.7 0.00 0.00 0.00 82 1010.0
20260509041804 21 125 4.8 12.9 0.00 0.00 0.00 82 1010.3
20260509040804 21 136 4.8 12.9 0.00 0.00 0.00 82 1010.3
20260509034804 22 144 8.0 19.3 0.00 0.00 0.00 81 1010.2
20260509034304 22 160 8.0 20.9 0.00 0.00 0.00 81 1010.1
20260509033804 22 165 11.3 20.9 0.00 0.00 0.00 81 1010.0
20260509031804 22 157 9.7 19.3 0.00 0.00 0.00 81 1010.0
20260509030805 22 159 8.0 12.9 0.00 0.00 0.00 81 1010.0
20260509030304 22 153 8.0 12.9 0.00 0.00 0.00 80 1010.0
20260509024804 22 164 8.0 14.5 0.00 0.00 0.00 80 1009.8
20260509024304 22 166 8.0 14.5 0.00 0.00 0.00 79 1009.8
20260509023805 22 156 9.7 16.1 0.00 0.00 0.00 79 1009.7